SCP
0 0 0 0 0 0 0 0 0 0 0 0 0 0 0 0 0 0 0 0 0 0 0 0 0 0 0 0 0 0 0 0 0 0 0 0 0 0 0 0 0 0 0 0
0 0 0 0 0 0 0 0 0 0 0 0 0 0 0 0 0 0 0 0 0 0 0 0 0 0 0 0 0 0 0 0 0 0 0 0 0 0 0 0 0 0 0 0
0 0 0 0 0 0 0 0 0 0 0 0 0 0 0 0 0 0 0 0 0 0 0 0 0 0 0 0 0 0 0 0 0 0 0 0 0 0 0 0 0 0 0 0
0 0 0 0 0 0 0 0 0 0 0 0 0 0 0 0 0 0 0 0 0 0 0 0 0 0 0 0 0 0 0 0 0 0 0 0 0 0 0 0 0 0 0 0
0 0 0 0 0 0 0 0 0 0 0 0 0 0 0 0 0 0 0 0 0 0 0 0 0 0 0 0 0 0 0 0 0 0 0 0 0 0 0 0 0 0 0 0
0 0 0 0 0 0 0 0 0 0 0 0 0 0 0 0 0 0 0 0 0 0 0 0 0 0 0 0 0 0 0 0 0 0 0 0 0 0 0 0 0 0 0 0
0 0 0 0 0 0 0 0 0 0 0 0 0 0 0 0 0 0 0 0 0 0 0 0 0 0 0 0 0 0 0 0 0 0 0 0 0 0 0 0 0 0 0 0
0 0 0 0 0 0 0 0 0 0 0 0 0 0 0 0 0 0 0 0 0 0 0 0 0 0 0 0 0 0 0 0 0 0 0 0 0 0 0 0 0 0 0 0
0 0 0 0 0 0 0 0 0 0 0 0 0 0 0 0 0 0 0 0 0 0 0 0 0 0 0 0 0 0 0 0 0 0 0 0 0 0 0 0 0 0 0 0
0 0 0 0 0 0 0 0 0 0 0 0 0 0 0 0 0 0 0 0 0 0 0 0 0 0 0 0 0 0 0 0 0 0 0 0 0 0 0 0 0 0 0 0
0 0 0 0 0 0 0 0 0 0 0 0 0 0 0 0 0 0 0 0 0 0 0 0 0 0 0 0 0 0 0 0 0 0 0 0 0 0 0 0 0 0 0 0
0 0 0 0 0 0 0 0 0 0 0 0 0 0 0 0 0 0 0 0 0 0 0 0 0 0 0 0 0 0 0 0 0 0 0 0 0 0 0 0 0 0 0 0
0 0 0 0 0 0 0 0 0 0 0 0 0 0 0 0 0 0 0 0 0 0 0 0 0 0 0 0 0 0 0 0 0 0 0 0 0 0 0 0 0 0 0 0
0 0 0 0 0 0 0 0 0 0 0 0 0 0 0 0 0 0 0 0 0 0 0 0 0 0 0 0 0 0 0 0 0 0 0 0 0 0 0 0 0 0 0 0
0 0 0 0 0 0 0 0 0 0 0 0 0 0 0 0 0 0 0 0 0 0 0 0 0 0 0 0 0 0 0 0 0 0 0 0 0 0 0 0 0 0 0 0
0 0 0 0 0 0 0 0 0 0 0 0 0 0 0 0 0 0 0 0 0 0 0 0 0 0 0 0 0 0 0 0 0 0 0 0 0 0 0 0 0 0 0 0
0 0 0 0 0 0 0 0 0 0 0 0 0 0 0 0 0 0 0 0 0 0 0 0 0 0 0 0 0 0 0 0 0 0 0 0 0 0 0 0 0 0 0 0
0 0 0 0 0 0 0 0 0 0 0 0 0 0 0 0 0 0 0 0 0 0 0 0 0 0 0 0 0 0 0 0 0 0 0 0 0 0 0 0 0 0 0 0
0 0 0 0 0 0 0 0 0 0 0 0 0 0 0 0 0 0 0 0 0 0 0 0 0 0 0 0 0 0 0 0 0 0 0 0 0 0 0 0 0 0 0 0
0 0 0 0 0 0 0 0 0 0 0 0 0 0 0 0 0 0 0 0 0 0 0 0 0 0 0 0 0 0 0 0 0 0 0 0 0 0 0 0 0 0 0 0
0 0 0 0 0 0 0 0 0 0 0 0 0 0 0 0 0 0 0 0 0 0 0 0 0 0 0 0 0 0 0 0 0 0 0 0 0 0 0 0 0 0 0 0
0 0 0 0 0 0 0 0 0 0 0 0 0 0 0 0 0 0 0 0 0 0 0 0 0 0 0 0 0 0 0 0 0 0 0 0 0 0 0 0 0 0 0 0
0 0 0 0 0 0 0 0 0 0 0 0 0 0 0 0 0 0 0 0 0 0 0 0 0 0 0 0 0 0 0 0 0 0 0 0 0 0 0 0 0 0 0 0
0 0 0 0 0 0 0 0 0 0 0 0 0 0 0 0 0 0 0 0 0 0 0 0 0 0 0 0 0 0 0 0 0 0 0 0 0 0 0 0 0 0 0 0
0 0 0 0 0 0 0 0 0 0 0 0 0 0 0 0 0 0 0 0 0 0 0 0 0 0 0 0 0 0 0 0 0 0 0 0 0 0 0 0 0 0 0 0
0 0 0 0 0 0 0 0 0 0 0 0 0 0 0 0 0 0 0 0 0 0 0 0 0 0 0 0 0 0 0 0 0 0 0 0 0 0 0 0 0 0 0 0
0 0 0 0 0 0 0 0 0 0 0 0 0 0 0 0 0 0 0 0 0 0 0 0 0 0 0 0 0 0 0 0 0 0 0 0 0 0 0 0 0 0 0 0
Wind_Speed
3 4 3 4 5 5 7 7 7 8 7 8 5 4 3 3 2 1 1 1 1 1 1 2 2 2 2 2 1 1 1 1 1 1 1 1 1 1 1 2 2 2 2 2
3 3 2 5 7 8 8 7 8 7 10 6 4 2 3 3 2 2 2 2 1 1 1 1 1 1 2 2 1 1 1 1 1 1 1 2 1 2 2 2 2 2 2 2
3 3 3 7 8 9 6 6 7 11 10 3 3 4 5 4 3 4 3 2 2 2 1 1 1 1 1 1 1 1 1 1 1 1 1 2 2 2 2 2 2 2 1 1
1 2 6 7 1 4 5 6 6 6 5 5 6 5 4 3 4 4 3 3 2 1 1 1 1 1 1 1 2 2 2 2 1 1 1 2 2 2 2 1 2 1 1 1
1 2 8 7 2 3 4 7 6 8 7 5 3 2 3 3 3 4 4 3 2 1 1 0 0 1 1 2 2 2 1 1 1 1 1 2 2 2 2 2 1 1 1 1
3 2 7 6 1 2 2 7 4 5 7 5 1 2 5 3 2 2 1 1 0 0 1 1 0 1 2 2 1 1 1 1 1 0 1 1 2 2 1 2 1 1 1 1
4 5 10 6 1 3 3 7 3 4 5 4 5 6 4 1 1 1 1 1 1 1 1 1 0 2 2 1 1 1 1 1 1 1 0 1 2 2 2 2 2 2 2 1
5 5 10 3 5 6 7 3 2 3 4 4 5 4 2 1 2 1 1 1 1 1 0 0 1 2 1 0 1 1 1 1 1 1 1 1 2 1 1 2 2 2 2 1
9 10 5 5 6 4 2 3 3 3 3 3 3 3 3 2 2 1 2 1 1 1 1 1 1 1 1 1 0 1 1 1 1 1 1 1 2 2 1 1 2 1 1 0
6 9 7 6 6 5 3 4 4 3 3 3 3 3 3 2 2 1 1 1 1 1 1 1 1 0 1 0 1 1 2 1 1 1 1 1 1 1 1 1 1 1 1 1
7 7 5 6 7 7 6 4 3 3 3 3 3 3 3 2 2 2 2 1 1 2 1 1 0 0 1 1 1 1 1 1 1 1 1 1 1 0 0 1 2 2 1 1
9 7 5 6 4 4 5 5 5 3 2 2 3 4 3 2 2 2 2 1 1 1 1 1 0 0 0 1 1 2 1 1 0 1 1 1 1 2 2 1 1 1 0 1
8 4 5 5 4 3 5 5 4 4 4 3 3 3 3 2 2 1 1 1 2 2 1 1 0 0 1 0 1 2 1 1 0 0 0 0 0 0 1 2 3 3 2 2
7 4 5 5 5 4 4 4 3 2 2 2 2 2 2 2 2 2 2 2 2 1 1 1 1 1 1 0 1 1 1 1 1 0 0 0 0 0 0 0 1 2 2 3
7 7 7 4 3 3 2 2 2 2 2 2 2 2 3 3 3 3 2 1 1 1 1 1 1 2 0 1 1 1 1 1 1 1 0 0 0 0 0 0 1 1 1 2
4 4 5 5 6 4 3 3 3 4 3 3 2 3 3 3 3 2 1 1 2 2 2 2 2 2 1 2 1 1 1 2 1 1 1 0 0 0 1 1 1 1 1 1
4 4 5 5 6 5 5 5 5 4 3 3 4 3 3 2 2 1 1 1 2 2 2 2 2 1 1 2 2 1 1 1 2 1 1 1 1 1 1 1 1 1 2 2
7 7 6 5 5 5 5 4 4 4 4 4 3 3 3 3 4 3 2 1 1 1 1 2 1 1 1 2 2 1 1 1 1 1 1 1 1 1 1 1 2 2 1 2
5 5 5 5 5 4 4 4 4 4 3 3 3 4 4 4 4 3 2 2 2 3 3 2 2 1 1 2 2 1 2 2 1 1 1 2 1 1 1 1 2 2 2 2
3 3 4 3 3 4 4 4 3 3 3 3 3 3 3 3 3 3 3 3 4 4 3 2 2 2 2 2 3 2 2 2 2 1 1 1 1 1 1 2 2 2 2 2
3 3 3 3 3 3 3 4 3 3 3 3 4 5 4 4 3 3 3 3 3 3 3 3 2 2 2 3 3 2 2 2 2 2 2 2 2 2 2 2 2 2 2 3
3 3 3 3 3 3 3 3 3 3 3 3 4 4 4 3 3 3 4 4 3 4 2 2 2 3 4 4 2 2 2 2 2 2 2 2 2 2 2 2 2 3 3 3
3 3 3 3 4 3 2 2 3 4 4 4 4 5 5 4 3 3 4 3 3 4 2 2 4 6 5 2 2 2 2 2 2 2 2 2 2 2 2 3 3 3 3 3
3 3 3 2 2 2 3 4 3 3 4 4 4 4 4 3 3 3 3 4 5 5 3 4 6 6 4 2 2 2 2 2 2 2 2 2 2 2 3 3 3 3 3 4
3 3 3 3 3 4 4 3 2 3 3 3 3 3 3 3 4 3 2 3 5 4 2 4 5 5 2 1 2 2 2 3 3 3 3 3 3 3 3 3 3 4 4 4
3 3 4 4 4 3 3 2 3 3 3 3 2 2 2 2 2 2 2 3 4 4 2 2 2 3 2 2 2 2 2 3 3 3 3 3 3 3 3 4 5 4 4 4
3 3 2 2 3 3 3 3 3 4 4 4 3 2 2 2 2 2 3 2 2 2 2 2 2 2 2 2 2 2 2 2 2 3 3 3 3 3 4 4 4 4 4 4
Wind_Direction
258 265 246 245 242 215 211 211 217 241 247 267 271 269 278 281 290 308 322 323 319 340 349 6 15 13 14 17 17 42 74 90 122 127 125 127 124 123 131 132 124 123 120 110
297 294 266 267 254 234 231 227 233 253 264 262 272 281 285 270 243 254 275 283 297 317 340 343 359 2 6 9 6 42 74 69 54 93 106 114 113 111 106 99 102 105 111 120
280 309 356 272 238 217 218 214 202 229 245 258 272 259 250 246 230 233 247 253 257 273 281 298 314 330 355 4 13 40 70 69 61 90 110 123 119 108 107 107 107 109 119 128
288 21 244 245 215 199 220 239 227 244 261 246 245 254 251 228 213 228 240 238 240 253 294 319 339 5 23 33 36 44 54 54 48 58 91 111 113 117 118 125 128 138 141 138
147 254 278 290 247 185 206 266 232 237 254 262 293 320 287 241 212 222 228 224 223 227 239 351 13 36 60 49 44 47 40 31 27 73 109 118 121 124 122 125 122 130 127 113
147 203 247 257 262 188 118 278 253 221 243 246 182 247 264 246 221 230 225 185 180 127 105 105 22 83 82 63 46 13 355 338 331 71 135 136 139 127 112 116 116 104 73 54
186 227 263 257 217 128 181 251 278 231 239 221 209 231 255 234 216 193 170 151 124 117 128 184 128 99 91 72 355 318 332 1 15 9 99 124 118 111 117 110 97 87 72 41
170 209 252 215 145 191 228 268 265 252 243 226 235 261 260 228 193 168 146 129 122 118 47 4 107 112 107 298 315 2 34 64 50 23 46 75 94 92 105 119 108 96 80 47
197 218 242 193 208 234 243 245 255 249 246 222 234 248 251 223 204 188 171 159 133 129 79 16 27 122 136 290 9 63 63 61 59 50 50 65 96 99 86 98 112 118 116 71
247 256 250 242 252 266 249 245 257 243 233 207 218 234 239 219 201 190 184 172 145 126 112 4 357 35 132 68 60 90 83 56 49 61 50 38 53 89 119 148 159 168 178 203
251 270 290 260 242 245 249 251 254 251 229 211 203 218 217 214 205 194 199 187 163 169 185 244 20 12 20 66 96 91 79 60 45 48 59 51 45 57 183 224 202 198 208 206
233 230 218 250 255 233 230 239 235 229 243 232 207 211 202 210 217 193 199 182 167 183 197 228 134 328 5 75 118 122 109 71 40 39 38 38 42 18 18 11 5 4 313 246
238 247 233 256 270 237 229 237 228 211 213 228 221 204 196 202 202 185 185 183 197 209 215 213 163 308 314 120 129 139 155 156 83 43 42 45 46 57 3 4 20 12 355 336
240 245 258 254 252 246 233 234 221 205 206 205 213 195 185 192 189 189 210 214 206 194 191 198 202 274 286 150 139 147 161 187 168 173 191 213 212 270 295 311 332 341 345 344
239 228 235 248 252 247 231 207 190 214 212 219 203 194 189 192 208 220 223 206 177 173 199 204 235 267 257 163 164 174 176 178 183 172 171 189 191 180 287 292 296 311 330 331
249 235 235 240 244 240 217 202 209 227 219 215 208 212 208 204 211 218 201 162 169 211 227 222 243 256 192 174 175 183 198 207 191 159 145 137 150 225 253 259 276 285 291 294
217 229 223 233 238 236 226 219 216 223 219 214 217 212 196 184 193 220 229 209 205 225 229 223 244 256 200 181 179 184 184 209 209 167 163 185 208 233 246 247 256 269 280 288
231 237 226 220 223 227 229 221 214 213 218 222 208 188 185 189 207 223 225 203 188 268 267 244 239 221 204 186 179 176 172 167 168 182 188 204 226 231 242 250 258 270 289 296
239 238 236 230 225 218 220 218 217 216 214 199 192 203 205 207 210 214 195 177 195 241 261 251 237 215 216 213 191 174 170 171 182 205 208 238 259 242 236 246 254 262 271 276
234 231 227 228 221 209 214 217 207 207 209 194 192 201 211 216 207 200 191 212 225 228 226 221 217 215 214 219 204 178 178 182 192 207 210 216 232 239 239 247 253 262 267 269
228 228 218 215 219 215 209 202 197 212 216 196 195 207 215 217 201 190 193 233 248 227 219 224 215 213 210 216 211 184 184 190 194 198 209 221 229 237 240 245 260 268 268 270
227 224 223 216 213 228 223 203 202 209 211 209 209 205 203 211 208 209 218 225 232 226 211 210 212 220 223 220 192 185 191 194 200 205 214 222 229 239 244 251 258 264 264 264
228 224 220 215 218 229 233 212 207 208 213 215 214 210 210 213 205 204 233 227 216 226 217 214 222 225 226 209 182 187 194 201 208 213 220 225 231 237 245 254 258 261 262 262
233 230 227 217 192 203 234 238 224 219 220 225 224 216 206 209 225 225 226 225 223 227 221 224 226 225 224 185 182 191 200 210 215 218 223 230 235 240 245 251 257 260 261 263
229 227 220 204 209 225 233 230 222 221 219 229 233 224 214 206 210 216 206 210 218 222 223 225 226 228 213 181 192 201 207 216 217 216 220 227 234 240 246 249 252 257 259 261
225 225 224 221 221 223 216 205 218 223 214 226 237 220 210 205 201 198 198 205 210 215 210 212 216 220 200 198 207 216 220 237 250 240 227 231 237 241 247 251 255 256 259 261
226 224 224 234 234 222 215 211 219 226 218 215 228 219 201 197 195 193 193 199 204 206 203 202 200 200 199 201 207 218 229 233 232 232 233 235 237 242 247 251 255 258 260 260